Starlink 32159

operational
NORAD ID: 60293 Int'l Des: 2024-132 Owner: SPXS Country: US Constellation: starlink
LEOCIRCULAR

About Starlink 32159

Description loading...

Live Position

Loading 3D Globe...

Upcoming Passes

Altitude History

Altitude vs Time

uPlot chart will show altitude changes over time

Two-Line Element Set

1 60293U 24132R 25306.25468120 -.00000126 00000-0 78846-5 0 9994
2 60293 53.1608 284.0583 0001335 99.4941 260.6211 15.30192153 72055
Epoch: Nov 2, 2025 • Age: 16 hours

Current Status

Altitude 475.6 km
Velocity 7.63 km/s
Sub-Earth Point 2.45°N, 78.24°E
Launch Date Jul 28, 2024
Age 1.2 years
Type internet

Technical Details

Classification Payload
Mass 730.00 kg
Dry Mass 700.00 kg
Total Mass 730.00 kg
Length 0.30 m
Diameter 4.10 m
Span 29.00 m
Shape Box + pan
Manufacturer SPXS
Bus Type Starlink V2M
Phase Status In Orbit
Owner/State SPXS/US

Large Constellations

Loading constellations...